Location: *
(43.4667°N, 11.6833°E)
Time: 09:33:48
(UTC+00:00)

SL-19 R/B - Pass Details

Date: 19 July 2019
Orbit: 875 x 1208 km, 100.5° (Epoch: 19 August)

Event Time Altitude Azimuth Distance (km) Brightness Sun altitude
Exits shadow 23:27:14 67° 205° (SSW) 968 4.2 -25.8°
Maximum altitude 23:27:53 75° 255° (WSW) 933 4.2 -25.8°
Drops below altitude 10° 23:33:45 10° 341° (NNW) 2,657 7.6 -25.7°
Sets 23:36:16 0° 343° (NNW) 3,647 8.6 -25.7°
